{"data":{"norad_id":64759,"intl_designator":"2025-147E","name":"STARLINK-34598","alt_names":[],"object_type":"PAYLOAD","status":"ACTIVE","operator":null,"country":"US","launch_date":"2025-07-08","launch_site_code":"AFETR","launch_vehicle":null,"mission":null,"orbit_class":"UNKNOWN","rcs_meters":null,"size_class":null,"mass_kg":null,"dimensions":null,"purposes":["comms"],"wikipedia_slug":null,"has_3d_model":false,"image_url":null,"decayed_at":null,"tle_current":{"epoch":"2026-05-24T18:22:02.142048Z","epoch_age_seconds":85516,"freshness":"FRESH","line1":"1 64759U 25147E   26144.76530257  .00024932  00000+0  76688-3 0  9999","line2":"2 64759  53.1589 249.0743 0001172  76.4519 283.6614 15.33548263 50359","mean_motion":15.33548263,"eccentricity":0.0001172,"inclination_deg":53.1589,"raan_deg":249.0743,"arg_perigee_deg":76.4519,"mean_anomaly_deg":283.6614,"bstar":0.00076688,"rev_number":5035,"period_min":93.899881388995,"perigee_km":464.43391037194,"apogee_km":466.03799699228,"semimajor_km":6843.3729536821,"source":"CELESTRAK","updated_at":"2026-05-25T13:38:20.553206Z"}}}